Location: Bandys
(35.4750°N, 81.0830°W)
Time: 01:19:07
(UTC-04:00)

Daily predictions for brighter satellites

Satellite Brightness Start Highest point End
(mag) Time Altitude Azimuth Time Altitude Azimuth Time Altitude Azimuth
Cosmos 1626 4.2 00:06:16 24° WNW 00:06:16 24° WNW 00:08:46 10° NNW
Cosmos 1408 Rocket 4.4 00:07:39 49° N 00:07:39 49° N 00:10:56 10° N
Cosmos 2297 4.0 00:06:54 54° WSW 00:07:49 62° WNW 00:13:29 10° NNE
Cosmos 1766 Rocket 4.3 00:08:57 51° NNW 00:08:57 51° NNW 00:12:28 10° N
Mayak 0.9 00:06:49 10° NE 00:08:13 18° NE 00:08:13 18° NE
Cosmos 2082 Rocket 2.1 00:09:21 10° NNW 00:14:50 82° NW 00:14:50 82° NW
Cosmos 1833 Rocket 2.7 00:10:01 10° NNW 00:15:19 71° W 00:15:19 71° W
Cosmos 2058 4.4 00:17:53 35° N 00:17:53 35° N 00:20:20 10° N
Cosmos 2151 4.4 00:18:32 33° NNE 00:18:32 33° NNE 00:21:00 10° NNE
CZ-2C R/B 3.3 00:15:19 10° N 00:20:26 46° WNW 00:21:06 43° W
H-2A R/B 4.3 00:23:20 16° NE 00:23:20 16° NE 00:24:56 10° NNE
Meteor 1-27 4.3 00:17:14 10° N 00:22:58 78° WNW 00:22:58 78° WNW
Cosmos 1943 Rocket 3.9 00:30:13 21° ENE 00:30:13 21° ENE 00:32:40 10° NE
Cosmos 2074 Rocket 3.9 00:22:49 10° N 00:29:08 89° E 00:29:11 88° SE
Cosmos 1455 4.4 00:32:20 10° NNW 00:34:03 23° NW 00:34:03 23° NW
Meteor 2-21 4.4 00:31:41 10° N 00:37:26 73° NE 00:37:26 73° NE
Terra 4.0 00:41:23 16° W 00:41:23 16° W 00:43:51 10° NW
Cosmos 1140 Rocket 4.1 00:55:09 52° N 00:55:09 52° N 00:59:00 10° NNE
Cosmos 1610 Rocket 4.4 00:51:01 10° N 00:56:54 79° NW 00:56:54 79° NW
ADEOS Rocket 3.0 00:52:25 10° NNE 00:58:34 84° WNW 00:58:38 84° W
CENTAUR R/B 3.3 00:58:52 10° NW 01:06:51 56° WSW 01:07:22 56° SW
Meteor 2-10 Rocket 4.2 01:05:39 10° NNW 01:09:40 52° NW 01:09:40 52° NW
Meteor 2-16 Rocket 4.5 01:09:17 10° N 01:14:58 75° NW 01:14:58 75° NW
Cosmos 2154 Rocket 4.1 01:09:42 10° N 01:15:42 70° WNW 01:15:42 70° WNW
Cosmos 2181 Rocket 4.0 01:18:53 73° NE 01:18:53 73° NE 01:24:43 10° N
USA 234 3.3 01:15:45 10° NE 01:21:29 62° E 01:21:29 62° E
Cosmos 1295 Rocket 4.5 01:24:20 10° N 01:30:11 78° NW 01:30:11 78° NW
Lacrosse 4 Rocket 3.9 01:35:25 17° ENE 01:35:25 17° ENE 01:36:41 10° NE
Cosmos 2341 Rocket 4.0 01:26:33 10° N 01:32:35 77° NW 01:32:35 77° NW
Cosmos 2369 Rocket 2.7 01:36:42 54° NW 01:36:42 54° NW 01:41:46 10° NNE
SL-8 Rocket 4.0 01:31:51 10° N 01:37:54 72° ENE 01:37:54 72° ENE
Cosmos 2218 Rocket 4.2 01:34:46 10° N 01:40:43 63° ENE 01:40:43 63° ENE
Mayak 1.2 01:43:06 10° NNW 01:44:50 16° NW 01:44:50 16° NW
Cosmos 1656 Rocket 4.3 01:51:12 48° ENE 01:51:12 48° ENE 01:55:37 10° NNE
Meteor 2-3 Rocket 4.0 01:53:55 62° NE 01:53:55 62° NE 01:58:59 10° NNE
MOS 1 Rocket 4.3 01:48:58 10° NNE 01:52:16 43° NNE 01:52:16 43° NNE
H-2A R/B 4.3 02:00:26 17° NW 02:00:26 17° NW 02:01:36 10° NW
Cosmos 2366 rocket 3.9 02:00:35 10° N 02:06:25 81° NNW 02:06:25 81° NNW
Cosmos 1943 Rocket 3.2 02:11:43 36° WNW 02:11:43 36° WNW 02:16:47 10° N
CZ-2D R/B 4.1 02:12:34 10° NE 02:16:00 17° E 02:16:20 17° E
Nadezhda 3 Rocket 4.2 02:16:03 60° ESE 02:16:20 61° E 02:22:33 10° NNE
SL-16 R/B 4.3 02:21:30 15° ESE 02:25:12 26° ENE 02:30:07 10° NNE
ATLAS 5 CENTAUR R/B 3.8 02:26:36 38° ESE 02:27:03 38° ESE 02:38:17 10° NE
Resurs 1-4 Rocket 3.6 02:30:12 10° NE 02:34:38 26° E 02:35:00 26° ESE
Cosmos 1814 Rocket 4.4 02:30:12 10° N 02:35:25 58° ENE 02:35:25 58° ENE
Cosmos 1833 4.3 02:30:19 10° NNW 02:35:12 67° NW 02:35:12 67° NW
Cosmos 841 Rocket 4.1 02:36:02 10° N 02:41:04 49° ENE 02:41:34 47° E
GP-B 3.9 02:39:15 10° N 02:42:42 51° NNE 02:42:42 51° NNE
Meteor 2-6 Rocket 4.1 02:48:44 10° N 02:54:08 72° E 02:54:27 70° ESE
Cosmos 1437 Rocket 4.0 02:55:46 40° ENE 02:55:46 40° ENE 02:58:52 10° NNE
H-2A R/B 4.1 02:51:46 10° NE 02:54:24 25° ENE 02:54:24 25° ENE
Cosmos 1867 4.2 02:57:21 45° WNW 02:57:38 45° NW 03:02:52 10° NNE
Cosmos 2219 4.3 02:53:22 10° N 02:58:39 39° ENE 03:02:04 20° ESE
Okean 1-7 3.9 02:57:17 10° N 03:01:29 44° E 03:01:29 44° E
COSMOS 2455 3.2 02:56:14 10° NNW 03:02:14 63° ENE 03:04:51 34° SE
USA 234 4.5 02:59:09 10° NNE 03:04:55 35° NNW 03:08:49 19° W
Cosmos 1821 Rocket 3.9 02:59:41 10° N 03:06:03 86° W 03:07:09 64° S
Cosmos 1703 Rocket 3.9 03:01:53 10° N 03:05:41 62° NNE 03:05:41 62° NNE
Lacrosse 4 Rocket 3.2 03:11:44 23° NW 03:11:44 23° NW 03:15:09 10° N
Cosmos 1818 4.3 03:07:28 10° NW 03:11:22 40° WNW 03:11:22 40° WNW
SL-24 DEB 4.3 03:13:50 72° E 03:13:52 72° E 03:18:29 10° N
IRS-1D 3.9 03:11:50 10° NNE 03:16:45 51° E 03:17:29 47° SE
AQUA 3.7 03:12:17 10° NNE 03:17:03 77° ESE 03:17:09 76° ESE
Cosmos 2297 Rocket 4.4 03:15:56 10° N 03:20:25 23° ENE 03:24:51 10° ESE
Cosmos 1354 Rocket 3.8 03:21:11 73° SSE 03:21:40 81° ESE 03:26:54 10° NNE
Cosmos 1486 Rocket 4.4 03:22:04 47° W 03:22:22 47° WNW 03:27:31 10° N
ATLAS CENTAUR R/B 1.9 03:24:32 50° ENE 03:24:32 50° ENE 03:27:39 10° NE
Cosmos 44 3.4 03:25:57 58° WNW 03:26:03 59° WNW 03:30:54 10° NNE
Cosmos 967 Rocket 4.5 03:24:32 55° SW 03:26:03 78° WNW 03:32:33 10° NNE
Meteor 1-27 Rocket 3.8 03:20:13 10° N 03:26:05 83° E 03:27:54 47° SSE
Meteor 1-10 Rocket 4.3 03:21:36 10° NNW 03:27:04 55° W 03:27:23 55° WSW
Cosmos 1733 Rocket 4.4 03:26:54 27° ESE 03:27:55 31° E 03:31:44 10° NNE
Cosmos 2227 Rocket 3.9 03:24:31 10° N 03:29:30 31° ENE 03:34:27 10° ESE
Cosmos 44 Rocket 3.1 03:29:14 79° S 03:29:30 86° ESE 03:34:30 10° NNE
Cosmos 968 Rocket 4.0 03:28:35 43° SE 03:29:44 51° ESE 03:34:50 10° NNE
IRS-1C 4.0 03:29:33 10° NNE 03:34:55 89° W 03:36:01 58° SSW
Cosmos 1656 4.3 03:34:56 35° SSE 03:36:46 48° ESE 03:42:11 10° NNE
ADEOS II 4.0 03:34:40 10° NE 03:38:46 23° E 03:42:17 12° SE
Shenzhou-11 Module 4.4 03:44:12 17° E 03:44:12 17° E 03:45:09 10° E
Meteor 1-4 Rocket 3.2 03:46:08 45° NW 03:46:08 45° NW 03:49:07 10° N
Cosmos 1503 Rocket 4.2 03:48:28 46° WSW 03:49:21 51° WNW 03:54:24 10° N
Cosmos 389 Rocket 2.6 03:53:17 70° ESE 03:53:23 71° E 03:57:02 10° NNE
CZ-2D R/B 4.4 03:50:36 10° NNE 03:54:35 42° E 03:55:57 31° SE
Milstar 3 Cent rocket 4.3 03:33:21 10° WSW 03:54:57 64° S 04:04:36 10° E
NPP 4.4 03:50:27 10° N 03:55:21 37° WNW 03:56:32 33° W
CZ-2D R/B 2.5 03:51:07 10° N 03:56:16 51° WNW 03:57:39 41° WSW
Cosmos 540 Rocket 3.6 03:52:09 10° NNW 03:57:06 51° WSW 03:57:47 48° SW
Helios 1A Rocket 4.0 03:54:21 10° NNE 03:58:07 37° E 03:59:41 26° SE
Delta 2 Rocket 3.2 03:58:55 61° WSW 03:59:33 75° S 04:04:11 10° ESE
Cosmos 1184 Rocket 4.5 03:56:43 10° NNW 03:58:23 24° NW 03:58:23 24° NW
ARIANE 5 R/B 2.4 03:56:29 10° N 04:01:29 79° WNW 04:03:08 43° SSW
GPS 2-04 Rocket1 2.7 04:01:20 58° W 04:02:07 88° S 04:06:16 10° E
Cosmos 1605 Rocket 4.0 03:56:24 10° NNW 04:02:26 63° W 04:05:06 34° SSW
UNKNOWN OBJECT B 3.3 04:01:55 10° NNE 04:05:54 57° E 04:07:20 35° SSE
SL-16 R/B 2.8 04:06:35 35° SW 04:08:29 45° W 04:14:22 10° NNW
SAR-Lupe-2 4.4 04:10:19 18° SE 04:12:39 48° ENE 04:16:07 10° N
Resurs 1-4 Rocket 3.0 04:09:42 10° N 04:14:26 33° WNW 04:16:05 27° WSW
NOSS 3-1 (C) 4.2 04:06:50 10° NNW 04:14:42 84° ENE 04:23:19 10° SSE
MOZ.5/SAFIR/RUBIN 5/SL-8 4.0 04:15:03 39° SW 04:16:10 48° W 04:20:41 10° NNW
Cosmos 1697 Rocket 2.9 04:13:35 27° S 04:16:41 68° ESE 04:22:18 10° NNE
Cosmos 2100 Rocket 4.3 04:11:06 10° N 04:17:16 67° E 04:23:28 10° SSE
ATLAS 2A CENTAUR R/B 3.8 04:08:13 22° WSW 04:17:31 49° S 04:24:29 10° ESE
SL-08 R/B 4.2 04:20:49 28° WSW 04:21:01 28° W 04:25:04 10° NW
PSLV R/B 4.4 04:23:31 26° SE 04:23:31 26° SE 04:25:00 10° SE
PSLV R/B 4.3 04:23:37 38° SW 04:24:38 46° W 04:28:41 10° NNW
Cosmos 1812 2.9 04:21:10 10° NNW 04:24:56 52° W 04:25:51 41° SW
Okean 3 3.5 04:24:45 10° N 04:28:57 82° E 04:32:16 16° S
Meteor 1-14 Rocket 4.2 04:25:39 26° SSW 04:28:59 73° W 04:34:50 10° N
Meteor 1-25 Rocket 4.1 04:26:32 26° SSW 04:29:43 72° W 04:35:16 10° N
H-2A R/B 4.1 04:27:53 10° NNW 04:30:25 17° WNW 04:30:59 16° WNW
Lacrosse 5 rocket 2.9 04:29:40 18° S 04:32:01 30° ESE 04:35:58 10° ENE
Meteor 1-18 Rocket 4.3 04:26:32 10° N 04:32:10 77° E 04:37:43 10° SSE
SL-8 R/B 3.8 04:27:41 10° WNW 04:32:20 50° SW 04:36:58 10° SSE
Cosmos 1633 3.6 04:34:39 27° W 04:35:05 27° WNW 04:38:14 10° NNW
Genesis I 4.4 04:36:06 10° NW 04:39:03 25° WSW 04:39:03 25° WSW
Meteor 2-12 Rocket 4.4 04:33:23 10° N 04:39:31 82° W 04:45:35 10° S
Cosmos 2123 Rocket 4.4 04:34:27 10° S 04:40:32 61° E 04:46:37 10° NNE
Sich 1 Rocket 4.0 04:38:02 12° S 04:41:59 60° E 04:46:21 10° NNE
Cosmos 2369 4.2 04:39:06 24° SW 04:42:13 46° WNW 04:47:39 10° N
Cosmos 2219 4.3 04:38:04 10° NW 04:42:30 24° WSW 04:43:53 22° WSW
Cosmos 1980 Rocket 2.5 04:39:54 15° S 04:44:27 65° ESE 04:50:02 10° NNE
BREEZE-M DEB (TANK) 3.1 04:41:44 10° WNW 04:44:45 59° SW 04:53:24 10° SE
COSMOS 2455 4.2 04:43:49 10° WNW 04:47:32 17° WSW 04:47:54 17° WSW
ADEOS 3.9 04:45:22 10° N 04:50:26 52° WNW 04:54:02 19° SW
USA 229 DEB 4.4 04:44:31 10° NW 04:50:59 35° WSW 04:57:32 10° S
USA 229 4.4 04:44:38 10° NW 04:51:06 35° WSW 04:57:40 10° S
NOSS 3-1 (A) 4.1 04:44:20 10° NNW 04:52:15 81° WSW 05:00:54 10° SSE
NOSS 2-1 (C) 3.7 04:51:39 17° S 04:54:10 50° ESE 04:57:47 10° NE
NOSS 2-1 (D) 3.6 04:52:58 18° SSW 04:55:30 54° ESE 04:59:09 10° NE
Cosmos 2173 Rocket 4.0 04:49:44 10° NNW 04:55:44 63° W 05:01:45 10° S
Atlas Centaur 2 3.1 04:54:57 14° S 04:56:36 17° SSE 04:59:28 10° ESE
Cosmos 1378 Rocket 3.5 04:54:52 10° NNW 04:59:18 72° W 05:03:43 10° S
Cosmos 1782 Rocket 3.5 04:58:34 10° S 05:02:58 90° ESE 05:07:21 10° N
ATLAS CENTAUR R/B 3.8 05:02:37 10° NW 05:03:14 10° NW 05:03:50 10° NW
Cosmos 2297 Rocket 2.5 04:59:16 10° NW 05:04:36 43° WSW 05:09:53 10° S
Cosmos 1538 Rocket 4.0 05:01:01 10° NNW 05:06:26 86° WSW 05:11:45 10° SSE
ASTEX 1 3.7 05:02:11 10° SSW 05:06:56 47° W 05:11:45 10° NNW
Meteor 1-11 Rocket 4.1 05:01:31 10° S 05:06:57 64° E 05:12:29 10° NNE
USA 102 3.1 05:05:39 13° SSE 05:07:31 87° WSW 05:11:50 10° NNW
Iridium 96 3.7 05:10:11 10° N 05:13:04 81° W 05:15:39 10° S
Cosmos 1777 Rocket 4.5 05:09:06 14° SW 05:13:17 46° WNW 05:18:17 10° N
Cosmos 2227 Rocket 2.9 05:08:29 10° NW 05:13:28 32° WSW 05:18:25 10° SSW
Lacrosse 5 1.9 05:08:25 10° NW 05:13:30 88° NE 05:18:34 10° SE
Cosmos 1271 Rocket 3.5 05:13:18 14° SW 05:16:16 35° WNW 05:19:54 10° N
Shenzhou-11 Module 3.1 05:15:44 10° W 05:18:28 36° NNW 05:21:15 10° NE
ADEOS II 2.8 05:13:42 10° N 05:18:31 37° WNW 05:23:13 10° SW
Gbstr 26 Del rocket 3.5 05:17:40 12° WSW 05:20:56 41° NW 05:24:49 10° NE
Aureole 2 Rocket 4.4 05:19:12 10° SSE 05:21:46 23° ESE 05:24:13 10° NE
Cosmos 2016 Rocket 4.2 05:18:45 10° NNW 05:24:54 53° W 05:30:59 10° SSW
Meteosat 1 Rocket2 3.9 05:21:25 11° WSW 05:25:45 32° S 05:29:18 10° ESE
SL-19 R/B 4.1 05:22:54 10° S 05:26:18 65° WSW 05:30:15 10° NNW
PSLV R/B 4.3 05:22:40 10° NNE 05:26:46 67° ESE 05:30:51 10° S
NOSS 2-1 (E) 3.2 05:24:18 11° SW 05:27:46 67° WNW 05:31:36 10° NNE
Aureole 3 4.4 05:23:07 10° SSW 05:28:44 46° W 05:33:12 10° N
BREEZE-M DEB (TANK) 4.0 05:29:47 10° NW 05:32:56 35° NNE 05:35:31 10° E
Cosmos 1356 3.7 05:30:30 10° NNW 05:33:51 48° W 05:37:11 10° S
Cosmos 1340 Rocket 3.0 05:33:11 10° NNW 05:37:01 50° W 05:40:47 10° S
Meteor 1-28 Rocket 4.0 05:33:39 10° SSE 05:37:18 55° ENE 05:40:57 10° N
CZ-4B R/B 3.0 05:33:23 10° N 05:37:36 78° WNW 05:41:59 10° SSW
Delta 2 Rocket 4.5 05:37:55 10° W 05:41:52 31° SSW 05:46:16 10° SE
GPS 2-04 Rocket1 2.7 05:37:42 10° W 05:41:53 82° S 05:45:53 10° ESE
SL-24 R/B - RUBIN 2 4.4 05:38:08 10° NW 05:41:59 30° WSW 05:46:02 10° S
Cosmos 1975 Rocket 3.4 05:38:10 10° NNW 05:42:31 50° W 05:46:49 10° SSW
